Regional Weather Roundup
Issued by NWS Upton, NY

Current Version | Previous Version | Text Only | Print | Product List | Glossary Off
Versions: 1 2 3 4 5 6 7 8 9 10 11 12 13 14 15 16 17 18 19 20 21 22 23 24 25 26 27 28 29 30 31 32 33 34 35 36 37 38 39 40 41 42 43 44 45 46 47 48 49 50
000 ASUS41 KOKX 290708 RWROKX REGIONAL WEATHER ROUNDUP NATIONAL WEATHER SERVICE NEW YORK NY 300 AM EDT WED JUL 29 2015 NOTE: "FAIR" INDICATES FEW OR NO CLOUDS BELOW 12,000 FEET WITH NO SIGNIFICANT WEATHER AND/OR OBSTRUCTIONS TO VISIBILITY. NYZ071-072-176-178-NJZ106-104-290800- NEW YORK CITY METRO AREA CITY SKY/WX TMP DP RH WIND PRES REMARKS CENTRAL PARK CLEAR 80 67 64 W3 29.98F LAGUARDIA APRT CLEAR 81 68 64 CALM 29.94F KENNEDY INTL CLEAR 77 71 82 SW6 29.96F NEWARK/LIBERTY CLEAR 77 69 76 CALM 29.95F BRNX BOT. GARD N/A 79 66 65 W2 29.97R TETERBORO CLEAR 77 67 71 CALM 29.94F $$ NYZ177-179-078>081-290800- LONG ISLAND NEW YORK CITY SKY/WX TMP DP RH WIND PRES REMARKS FARMINGDALE CLEAR 76 71 85 W3 29.96F ISLIP CLEAR 74 71 91 CALM 29.94F SHIRLEY CLEAR 75 71 87 SW3 29.96F WESTHAMPTON CLEAR 68 66 93 CALM 29.97F FOG MONTAUK POINT N/A 76 71 85 W5 29.96F $$ NYZ052-065-067-290800- HUDSON VALLEY CITY SKY/WX TMP DP RH WIND PRES REMARKS WHITE PLAINS CLEAR 72 69 90 NW5 29.97F NEWBURGH NOT AVBL MONTGOMERY CLEAR 66 65 96 S3 29.98S POUGHKEEPSIE CLEAR 70 67 90 CALM 29.96F ALBANY MOCLDY 72 63 73 CALM 29.98R $$ NJZ001-105-106-008-010-013-015-019>022-104-290800- NEW JERSEY CITY SKY/WX TMP DP RH WIND PRES REMARKS NEWARK/LIBERTY CLEAR 77 69 76 CALM 29.95F TETERBORO CLEAR 77 67 71 CALM 29.94F CALDWELL CLEAR 73 65 75 CALM 29.97F MORRISTOWN CLEAR 66 63 88 CALM 29.97F SOMERVILLE CLEAR 68 65 90 CALM 29.95F SUSSEX CLEAR 65 63 93 CALM 29.99F ANDOVER N/A 67 66 97 CALM 30.00F TRENTON CLEAR 72 68 87 CALM 29.97F MILLVILLE CLEAR 71 69 93 CALM 29.98F FOG ATLANTIC CITY CLEAR 74 71 91 CALM 29.98F WRIGHTSTOWN CLEAR 70 69 99 SW2 29.95F TOMS RIVER CLEAR 70 66 88 CALM 29.98F BELMAR CLEAR 73 66 78 SW5 29.97F $$ PAZ047>061-062-071-290800- EASTERN PENNSYLVANIA CITY SKY/WX TMP DP RH WIND PRES REMARKS PHILADELPHIA PTCLDY 79 73 82 SW5 29.98F ALLENTOWN CLEAR 70 67 90 NW3 29.99F SCRANTON CLEAR 69 62 78 E6 30.02F $$ CTZ002-004>006-009-010-012-RIZ004-006-007-MAZ004-011-015-290800- SOUTHERN NEW ENGLAND IN CT CITY SKY/WX TMP DP RH WIND PRES REMARKS BRADLEY INTL PTCLDY 71 65 81 CALM 29.95F HARTFORD CLEAR 71 68 90 CALM 29.94F DANBURY CLEAR 68 64 87 CALM 29.99F WTRBRY/OXFORD CLEAR 70 63 78 CALM 30.00F BRIDGEPORT CLEAR 77 69 76 CALM 29.95F MERIDEN CLEAR 68 64 87 CALM 29.95F NEW HAVEN CLEAR 73 68 84 CALM 29.94F CHESTER FAIR 75 66 73 NW3 29.97F GROTON CLEAR 70 68 93 CALM 29.94F WILLIMANTIC CLOUDY 69 67 93 CALM 29.96F IN RI CITY SKY/WX TMP DP RH WIND PRES REMARKS PROVIDENCE CLEAR 70 68 93 CALM 29.95S BLOCK ISLAND CLEAR 73 72 94 W9 29.95F WESTERLY CLEAR 68 66 93 CALM 29.95F IN MA CITY SKY/WX TMP DP RH WIND PRES REMARKS BOSTON CLEAR 73 68 84 CALM 29.93F WORCESTER CLEAR 73 64 73 W10 29.99S WESTFIELD CLEAR 67 65 93 CALM 29.96F PROVINCETOWN CLEAR 70 63 78 SW5 29.93S NANTUCKET FOG 72 70 93 W8 29.94F VSB 1/4 $$ ANZ330-335-338-340-345-350-353-355-290800- COASTAL MARINE OBSERVATIONS STATION/POSITION TIME SKY/WX TEMP WIND PRES VSBY WAVE AIR SEA DIR/SP/G HT/PER (UTC) (F) (DEG/KT/KT) (MB) (MI) (FT/S) NY HARB ENTRANCE 0650 76 76 230/ 8/ 10 1014.1 2/ 8 4S FIRE IS NOT AVBL 20S FIRE ISLAND 0650 76 74 270/ 8/ 10 1014.2 2/ 8 GREAT SOUTH BAY 0615 79 80 260/ 10/ 14 N/A 23SW MTP 0650 75 74 280/ 10/ 10 1013.8 2/10 HUDSON CANYON NOT AVBL KINGS POINT 0600 79 71 180/ 2/ 4 1014.2 CENTRAL LI SOUND NOT AVBL EASTERN LI SOUND 0600 71 68 280/ 6/ 8 N/A ROBBINS REEF 0600 79 270/ 5/ 6 1013.8 $$ >>>>>>>>>>>>>>>>>>>>>>>>>>>> KEY <<<<<<<<<<<<<<<<<<<<<<<<<<< > < > SKY/WX - SKY CONDITION/PRESENT WEATHER < > TMP - TEMPERATURE IN FAHRENHEIT < > DP - DEWPOINT IN FAHRENHEIT < > RH - RELATIVE HUMIDITY IN PERCENT < > WIND - DIRECTION AND SPEED IN MPH < > PRES - MEAN SEA LEVEL PRESSURE IN INCHES OF HG < > WCI - WIND CHILL INDEX < > VSB - VISIBILITY IN MILES < > HX - HEAT INDEX < > TC - TEMPERATURE IN CELSIUS < > VRB - VARIABLE WIND DIRECTION < > < >>>>>>>>>>>>>>>>>>>>>>>>>>>> KEY <<<<<<<<<<<<<<<<<<<<<<<<<<<

USA.gov is the U.S. government's official web portal to all federal, state and local government web resources and services.